CBBC

Bella Bella/Campbell Island Airport

Bella Bella, British Columbia, Canada
Issued Wind Visibility Ceiling Temperature Dew Point Humidity Barometer
Aug-20
09:39 UTC
130°
5 KTS
2 1/2 miles Overcast
300' AGL
12° C
54° F
12° C
54° F
100% 30.11" Hg
1019.8 hPa
LIFR
Aug-20
09:29 UTC
140°
4 KTS
5 miles Overcast
300' AGL
12° C
54° F
12° C
54° F
100% 30.11" Hg
1019.9 hPa
LIFR
Aug-20
09:19 UTC
130°
6 KTS
3 miles Broken
300' AGL
12° C
54° F
12° C
54° F
100% 30.11" Hg
1019.8 hPa
LIFR
Aug-20
09:00 UTC
140°
4 KTS
1 3/4 miles Broken
500' AGL
12° C
54° F
12° C
54° F
100% 30.12" Hg
1020.1 hPa
IFR
Aug-20
08:49 UTC
140°
3 KTS
2 miles Broken
1,600' AGL
12° C
54° F
12° C
54° F
100% 30.12" Hg
1020.1 hPa
IFR
Aug-20
08:47 UTC
140°
4 KTS
2 miles Broken
1,400' AGL
12° C
54° F
12° C
54° F
100% 30.12" Hg
1020.1 hPa
IFR
Aug-20
08:02 UTC
130°
3 KTS
3 miles Broken
500' AGL
12° C
54° F
12° C
54° F
100% 30.13" Hg
1020.4 hPa
IFR
Aug-20
07:23 UTC
160°
5 KTS
5 miles Broken
2,300' AGL
12° C
54° F
12° C
54° F
100% 30.14" Hg
1020.9 hPa
MVFR
Aug-20
07:02 UTC
150°
4 KTS
6 miles Broken
2,300' AGL
12° C
54° F
12° C
54° F
100% 30.15" Hg
1021.1 hPa
MVFR
Aug-20
06:42 UTC
150°
4 KTS
5 miles Broken
4,100' AGL
12° C
54° F
12° C
54° F
100% 30.15" Hg
1021.2 hPa
MVFR
Aug-20
06:31 UTC
150°
3 KTS
5 miles Broken
700' AGL
12° C
54° F
12° C
54° F
100% 30.15" Hg
1021.3 hPa
IFR
Aug-20
06:12 UTC
160°
5 KTS
6 miles Broken
400' AGL
12° C
54° F
12° C
54° F
100% 30.16" Hg
1021.4 hPa
LIFR
Aug-20
06:03 UTC
150°
4 KTS
3 miles Overcast
1,200' AGL
12° C
54° F
12° C
54° F
100% 30.16" Hg
1021.4 hPa
MVFR
Aug-20
05:52 UTC
140°
5 KTS
3 miles Broken
1,000' AGL
12° C
54° F
12° C
54° F
100% 30.16" Hg
1021.6 hPa
MVFR
Aug-20
05:36 UTC
140°
5 KTS
3 miles Broken
1,800' AGL
12° C
54° F
12° C
54° F
100% 30.17" Hg
1021.7 hPa
MVFR
Aug-20
05:30 UTC
140°
5 KTS
2 1/2 miles Broken
2,200' AGL
13° C
55° F
12° C
54° F
94% 30.17" Hg
1021.8 hPa
IFR
Aug-20
05:20 UTC
150°
5 KTS
4 miles Broken
2,400' AGL
13° C
55° F
12° C
54° F
94% 30.17" Hg
1021.9 hPa
MVFR
Aug-20
05:00 UTC
Varies @2 KTS 3 miles Broken
400' AGL
13° C
55° F
12° C
54° F
94% 30.18" Hg
1022.1 hPa
LIFR
Aug-20
04:49 UTC
190°
3 KTS
3 miles Broken
400' AGL
13° C
55° F
13° C
55° F
100% 30.18" Hg
1022.2 hPa
LIFR
Aug-20
04:38 UTC
200°
3 KTS
2 1/2 miles Broken
900' AGL
13° C
55° F
13° C
55° F
100% 30.18" Hg
1022.3 hPa
IFR
Aug-20
04:24 UTC
170°
2 KTS
3 miles Broken
3,000' AGL
13° C
55° F
13° C
55° F
100% 30.19" Hg
1022.4 hPa
MVFR
Aug-20
04:15 UTC
5 miles Broken
1,400' AGL
13° C
55° F
13° C
55° F
100% 30.19" Hg
1022.4 hPa
MVFR
Aug-20
04:11 UTC
5 miles Broken
1,400' AGL
13° C
55° F
13° C
55° F
100% 30.19" Hg
1022.4 hPa
MVFR
Aug-20
03:59 UTC
150°
2 KTS
5 miles Overcast
6,500' AGL
13° C
55° F
13° C
55° F
100% 30.19" Hg
1022.4 hPa
MVFR
Aug-20
03:31 UTC
6 miles Broken
2,700' AGL
13° C
55° F
13° C
55° F
100% 30.19" Hg
1022.5 hPa
MVFR
Aug-20
03:19 UTC
180°
2 KTS
5 miles Broken
1,100' AGL
13° C
55° F
13° C
55° F
100% 30.19" Hg
1022.5 hPa
MVFR
Aug-20
03:00 UTC
180°
3 KTS
5 miles Overcast
3,700' AGL
14° C
57° F
13° C
55° F
94% 30.19" Hg
1022.6 hPa
MVFR
Aug-20
02:59 UTC
180°
2 KTS
5 miles Overcast
3,700' AGL
14° C
57° F
13° C
55° F
94% 30.19" Hg
1022.6 hPa
MVFR
Aug-20
02:40 UTC
Varies @2 KTS 5 miles Broken
3,800' AGL
14° C
57° F
13° C
55° F
94% 30.2" Hg
1022.7 hPa
MVFR
Aug-20
02:00 UTC
9 miles Overcast
4,400' AGL
14° C
57° F
13° C
55° F
94% 30.21" Hg
1023 hPa
VFR
Aug-20
01:00 UTC
200°
3 KTS
9 miles Overcast
4,300' AGL
15° C
59° F
13° C
55° F
88% 30.21" Hg
1023.3 hPa
VFR
Aug-20
00:07 UTC
180°
3 KTS
9 miles Broken
4,600' AGL
15° C
59° F
12° C
54° F
82% 30.22" Hg
1023.5 hPa
VFR
Aug-19
23:48 UTC
170°
4 KTS
9 miles Broken
4,600' AGL
16° C
61° F
13° C
55° F
83% 30.22" Hg
1023.6 hPa
VFR
Aug-19
23:22 UTC
190°
4 KTS
9 miles Broken
1,900' AGL
16° C
61° F
14° C
57° F
88% 30.23" Hg
1023.9 hPa
MVFR
Aug-19
23:12 UTC
160°
4 KTS
9 miles Broken
1,300' AGL
15° C
59° F
14° C
57° F
94% 30.23" Hg
1024 hPa
MVFR
Aug-19
22:51 UTC
160°
7 KTS
9 miles Broken
1,500' AGL
14° C
57° F
13° C
55° F
94% 30.24" Hg
1024.1 hPa
MVFR
Aug-19
22:38 UTC
160°
5 KTS
9 miles Broken
1,300' AGL
15° C
59° F
13° C
55° F
88% 30.24" Hg
1024.1 hPa
MVFR
Aug-19
22:34 UTC
140°
6 KTS
9 miles Broken
1,500' AGL
15° C
59° F
13° C
55° F
88% 30.24" Hg
1024.1 hPa
MVFR
Aug-19
22:11 UTC
Varies @3 KTS 9 miles Broken
800' AGL
14° C
57° F
14° C
57° F
100% 30.24" Hg
1024.2 hPa
IFR
Aug-19
21:49 UTC
110°
4 KTS
9 miles Broken
1,300' AGL
14° C
57° F
13° C
55° F
94% 30.24" Hg
1024.3 hPa
MVFR
Aug-19
21:34 UTC
130°
4 KTS
9 miles Broken
2,300' AGL
14° C
57° F
13° C
55° F
94% 30.24" Hg
1024.3 hPa
MVFR
Aug-19
21:32 UTC
120°
5 KTS
9 miles Broken
2,600' AGL
14° C
57° F
13° C
55° F
94% 30.24" Hg
1024.3 hPa
MVFR
Aug-19
21:00 UTC
150°
4 KTS
9 miles Overcast
1,500' AGL
14° C
57° F
13° C
55° F
94% 30.25" Hg
1024.5 hPa
MVFR
Aug-19
20:55 UTC
130°
4 KTS
9 miles Broken
1,500' AGL
14° C
57° F
13° C
55° F
94% 30.25" Hg
1024.4 hPa
MVFR
Aug-19
20:47 UTC
130°
4 KTS
6 miles Broken
1,500' AGL
14° C
57° F
13° C
55° F
94% 30.25" Hg
1024.4 hPa
MVFR
Aug-19
20:38 UTC
130°
5 KTS
5 miles Broken
1,300' AGL
14° C
57° F
13° C
55° F
94% 30.25" Hg
1024.4 hPa
MVFR
Aug-19
20:34 UTC
130°
5 KTS
9 miles Broken
1,300' AGL
14° C
57° F
13° C
55° F
94% 30.25" Hg
1024.4 hPa
MVFR
Aug-19
20:13 UTC
140°
7 KTS
9 miles Broken
1,300' AGL
15° C
59° F
13° C
55° F
88% 30.24" Hg
1024.3 hPa
MVFR
Aug-19
19:36 UTC
160°
5 KTS
9 miles Overcast
5,000' AGL
14° C
57° F
14° C
57° F
100% 30.24" Hg
1024.2 hPa
VFR
Aug-19
19:28 UTC
150°
5 KTS
6 miles Broken
4,800' AGL
14° C
57° F
13° C
55° F
94% 30.24" Hg
1024.2 hPa
VFR
Aug-19
19:18 UTC
180°
6 KTS
3 miles Broken
2,500' AGL
13° C
55° F
13° C
55° F
100% 30.24" Hg
1024.3 hPa
MVFR
Aug-19
19:07 UTC
180°
6 KTS
1 3/4 miles Broken
1,500' AGL
13° C
55° F
12° C
54° F
94% 30.24" Hg
1024.4 hPa
IFR
Aug-19
18:59 UTC
180°
5 KTS
1 3/4 miles Broken
1,100' AGL
14° C
57° F
13° C
55° F
94% 30.24" Hg
1024.3 hPa
IFR
Aug-19
18:46 UTC
150°
4 KTS
9 miles Broken
1,100' AGL
14° C
57° F
13° C
55° F
94% 30.24" Hg
1024.1 hPa
MVFR
Aug-19
18:37 UTC
160°
4 KTS
9 miles Broken
1,700' AGL
14° C
57° F
13° C
55° F
94% 30.24" Hg
1024.2 hPa
MVFR
Aug-19
18:33 UTC
140°
4 KTS
9 miles Broken
3,000' AGL
15° C
59° F
14° C
57° F
94% 30.24" Hg
1024.2 hPa
MVFR
Aug-19
18:16 UTC
140°
4 KTS
6 miles Broken
3,300' AGL
14° C
57° F
14° C
57° F
100% 30.24" Hg
1024.2 hPa
VFR
Aug-19
18:09 UTC
150°
4 KTS
3 miles Broken
3,300' AGL
14° C
57° F
14° C
57° F
100% 30.24" Hg
1024.1 hPa
MVFR
Aug-19
17:54 UTC
160°
5 KTS
5 miles Broken
1,700' AGL
14° C
57° F
13° C
55° F
94% 30.23" Hg
1024 hPa
MVFR
Aug-19
17:32 UTC
160°
5 KTS
9 miles Broken
1,500' AGL
14° C
57° F
13° C
55° F
94% 30.23" Hg
1023.9 hPa
MVFR
Aug-19
17:27 UTC
160°
6 KTS
9 miles Broken
800' AGL
14° C
57° F
13° C
55° F
94% 30.23" Hg
1023.9 hPa
IFR
Aug-19
17:16 UTC
150°
7 KTS
9 miles Broken
1,500' AGL
14° C
57° F
13° C
55° F
94% 30.23" Hg
1023.9 hPa
MVFR
Aug-19
17:06 UTC
140°
6 KTS
9 miles Broken
1,000' AGL
14° C
57° F
13° C
55° F
94% 30.23" Hg
1023.8 hPa
MVFR
Aug-19
16:57 UTC
140°
6 KTS
9 miles Broken
1,000' AGL
14° C
57° F
13° C
55° F
94% 30.23" Hg
1023.8 hPa
MVFR
Aug-19
16:45 UTC
160°
6 KTS
9 miles Broken
1,000' AGL
14° C
57° F
13° C
55° F
94% 30.23" Hg
1023.9 hPa
MVFR
Aug-19
16:31 UTC
150°
5 KTS
9 miles Broken
1,300' AGL
14° C
57° F
13° C
55° F
94% 30.23" Hg
1023.8 hPa
MVFR
Aug-19
16:14 UTC
160°
3 KTS
7 miles Overcast
700' AGL
13° C
55° F
13° C
55° F
100% 30.23" Hg
1023.7 hPa
IFR
Aug-19
15:00 UTC
140°
4 KTS
9 miles Broken
700' AGL
14° C
57° F
13° C
55° F
94% 30.22" Hg
1023.4 hPa
IFR
Aug-19
14:19 UTC
140°
4 KTS
8 miles Broken
700' AGL
13° C
55° F
13° C
55° F
100% 30.22" Hg
1023.4 hPa
IFR
Aug-19
14:08 UTC
140°
4 KTS
8 miles Broken
900' AGL
13° C
55° F
13° C
55° F
100% 30.22" Hg
1023.4 hPa
IFR
Aug-19
13:56 UTC
160°
5 KTS
9 miles Broken
1,500' AGL
13° C
55° F
13° C
55° F
100% 30.21" Hg
1023.3 hPa
MVFR
Aug-19
13:54 UTC
150°
5 KTS
9 miles Broken
1,400' AGL
13° C
55° F
13° C
55° F
100% 30.21" Hg
1023.3 hPa
MVFR
Aug-19
13:41 UTC
170°
3 KTS
9 miles Overcast
6,500' AGL
13° C
55° F
12° C
54° F
94% 30.21" Hg
1023.2 hPa
VFR
Aug-19
13:27 UTC
Varies @2 KTS 9 miles Broken
1,100' AGL
13° C
55° F
12° C
54° F
94% 30.21" Hg
1023.1 hPa
MVFR
Aug-19
13:00 UTC
9 miles Broken
900' AGL
13° C
55° F
12° C
54° F
94% 30.21" Hg
1023 hPa
IFR
Aug-19
12:00 UTC
130°
3 KTS
9 miles Broken
700' AGL
13° C
55° F
13° C
55° F
100% 30.21" Hg
1023 hPa
IFR
Aug-19
11:54 UTC
150°
3 KTS
9 miles Broken
700' AGL
13° C
55° F
13° C
55° F
100% 30.21" Hg
1023.1 hPa
IFR
Aug-19
11:45 UTC
150°
4 KTS
9 miles Broken
1,400' AGL
13° C
55° F
13° C
55° F
100% 30.21" Hg
1023.1 hPa
MVFR
Aug-19
11:27 UTC
Varies @2 KTS 9 miles Broken
2,400' AGL
13° C
55° F
13° C
55° F
100% 30.21" Hg
1023.1 hPa
MVFR
Aug-19
11:03 UTC
Varies @2 KTS 9 miles Overcast
6,000' AGL
13° C
55° F
12° C
54° F
94% 30.21" Hg
1023 hPa
VFR
Aug-19
10:55 UTC
Varies @2 KTS 9 miles Broken
1,400' AGL
13° C
55° F
13° C
55° F
100% 30.21" Hg
1023.1 hPa
MVFR
Aug-19
10:46 UTC
200°
5 KTS
3 miles Broken
1,400' AGL
13° C
55° F
13° C
55° F
100% 30.21" Hg
1023.1 hPa
MVFR
Aug-19
10:24 UTC
5 miles Broken
3,000' AGL
13° C
55° F
12° C
54° F
94% 30.21" Hg
1023.1 hPa
MVFR
Aug-19
10:21 UTC
Varies @2 KTS 9 miles Broken
3,400' AGL
13° C
55° F
12° C
54° F
94% 30.21" Hg
1023.1 hPa
VFR
Aug-19
10:13 UTC
160°
3 KTS
9 miles Broken
3,700' AGL
13° C
55° F
12° C
54° F
94% 30.21" Hg
1023.2 hPa
VFR